[[{"header":{"parameterUnit":"m.s-1","parameterCategory":1,"la1":30.2991,"la2":30.254,"lo1":-89.0895,"lo2":-89.0444,"dy":0.0017,"dx":0.0017,"nx":28,"ny":28,"refTime":"2024-12-22T03:00:00:Z","depth":0,"parameterNumber":2,"parameterNumberName":"U-component_of_WINDS"},"data":[0,0,0,0,0,0,0,0,0,0,0,0,0,0,0,0,0,0,0,0,0,0,0,0,0,0,0,0,0,0,0,0,0,0,0,0,0,0,0,0,0,0,0,0,0,0,0,0,0,0,0,0,0,0,0,0,0,0,-4.439,-4.4391,0,-4.4504,-4.4506,-4.4507,-4.4405,-4.4401,-4.4397,-4.4393,-4.4513,-4.452,-4.4527,0,0,0,0,0,0,0,0,0,0,0,0,0,-4.4087,-4.4093,-4.439,-4.4392,-4.4393,-4.4504,-4.4506,-4.4507,-4.4406,-4.4401,-4.4396,-4.4391,-4.4511,-4.4519,-4.4527,0,0,0,0,0,0,0,0,0,0,0,0,0,-4.4212,-4.4095,-4.439,-4.4356,-4.4354,-4.4504,-4.4506,-4.4508,-4.4407,-4.4401,-4.4395,-4.4389,-4.4508,-4.4518,-4.4529,-4.4719,0,0,-4.4561,-4.4566,0,0,0,0,0,0,0,0,-4.4205,-4.4223,-4.4359,-4.4358,-4.4356,-4.4434,-4.4443,-4.4579,-4.4409,-4.4387,-4.4393,-4.4386,-4.4492,-4.4503,-4.4539,-4.4725,-4.473,-4.4562,-4.4568,-4.4573,-4.4576,0,0,0,0,0,0,0,-4.4197,-4.4218,-4.4435,-4.4361,-4.436,-4.4336,-4.4346,-4.4468,-4.4473,-4.4388,-4.4381,-4.4396,-4.449,-4.4529,-4.4541,-4.4732,-4.4562,-4.4571,-4.4578,-4.4582,-4.5081,-4.5087,0,0,0,0,0,0,-4.4191,-4.4211,-4.4432,-4.4439,-4.4264,-4.4346,-4.4358,-4.4416,-4.4472,-4.4474,-4.4401,-4.4391,-4.4514,-4.4528,-4.4545,-4.4772,-4.4573,-4.4583,-4.4589,-4.5074,-4.5082,-4.5089,0,0,0,0,0,0,-4.4185,-4.4212,-4.4427,-4.4323,-4.4349,-4.4358,-4.4423,-4.4421,-4.446,-4.4481,-4.4482,-4.444,-4.4509,-4.453,-4.4676,-4.4775,-4.4588,-4.4597,-4.5066,-4.5076,-4.5086,-4.5228,0,0,0,0,0,0,-4.4177,-4.421,-4.4282,-4.4325,-4.4355,-4.4557,-4.4429,-4.4428,-4.4478,-4.4465,-4.4517,-4.452,-4.4506,-4.4661,-4.4687,-4.4786,-4.4606,-4.5057,-4.507,-4.5083,-4.5214,-4.5242,-4.5265,0,0,0,0,0,-4.4166,-4.4318,-4.4286,-4.4313,-4.4444,-4.4562,-4.4579,-4.4559,-4.4486,-4.4559,-4.4573,-4.4518,-4.476,-4.4677,-4.4705,-4.4809,-4.5051,-4.5067,-4.5082,-4.5203,-4.5236,-4.5265,0,0,0,0,0,0,-4.4286,-4.4323,-4.4288,-4.4458,-4.4508,-4.4545,-4.4636,-4.4595,-4.4667,-4.4652,-4.4625,-4.4638,-4.4793,-4.4815,-4.4723,-4.4997,-4.4893,-4.4915,-4.4976,-4.5008,-4.5033,-4.5025,-4.4614,0,0,0,0,0,-4.4332,-4.4424,-4.4451,-4.4599,-4.4626,-4.4627,-4.4678,-4.4658,-4.4708,-4.4729,-4.4754,-4.4806,-4.4894,-4.4952,-4.5033,-4.5217,-4.5227,-4.5302,-4.5328,-4.5348,-4.5368,-4.5467,-4.5501,-4.514,-4.514,-4.514,0,0,-4.4429,-4.446,-4.452,-4.4624,-4.466,-4.4757,-4.4645,-4.4752,-4.4824,-4.4746,-4.4886,-4.4906,-4.4963,-4.5129,-4.5203,-4.5152,-4.547,-4.5368,-4.5384,-4.5393,-4.5487,-4.5521,-4.5551,-4.5151,-4.5149,-4.5147,0,0,-4.4654,-4.4687,-4.4813,-4.4852,-4.4908,-4.4908,-4.4939,-4.4982,-4.4993,-4.5132,-4.5076,-4.5161,-4.5312,-4.5355,-4.5397,-4.5639,-4.5593,-4.5667,-4.58,-4.5897,-4.5925,-4.5951,-4.6038,-4.6069,-4.5686,-4.5686,-4.5687,0,-4.4767,-4.491,-4.4884,-4.4996,-4.5043,-4.4976,-4.5105,-4.5144,-4.5224,-4.5259,-4.5201,-4.5389,-4.5423,-4.5598,-4.5658,-4.5693,-4.5728,-4.5661,-4.5923,-4.5948,-4.5971,-4.6054,-4.6087,-4.5695,-4.5694,-4.5693,-4.5692,0,-4.5047,-4.5147,-4.5243,-4.5321,-4.538,-4.5499,-4.5493,-4.5555,-4.5531,-4.5537,-4.5681,-4.5719,-4.5807,-4.5847,-4.5824,-4.602,-4.5987,-4.5927,-4.5823,-4.6015,-4.6092,-4.6124,-4.5708,-4.5704,-4.5702,-4.57,0,0,-4.5351,-4.5414,-4.545,-4.5485,-4.5542,-4.5619,-4.5736,-4.5822,-4.5877,-4.5935,-4.6033,-4.6162,-4.6107,-4.6154,-4.6136,-4.6221,-4.6412,-4.615,-4.6151,-4.6198,-4.6632,-4.6677,-4.6714,-4.6381,-4.6387,-4.6392,-4.6627,0,-4.5579,-4.5782,-4.5762,-4.5955,-4.6047,-4.5985,-4.6087,-4.6134,-4.6144,-4.6224,-4.6235,-4.6327,-4.6246,-4.6275,-4.6357,-4.6372,-4.6499,-4.6354,-4.6473,-4.6478,-4.6462,-4.6755,-4.6803,-4.7023,-4.6657,-4.6662,-4.6666,0,-4.5872,-4.594,-4.6142,-4.6185,-4.6224,-4.6316,-4.6393,-4.647,-4.6523,-4.6524,-4.6577,-4.6544,-4.6663,-4.6556,-4.672,-4.6622,-4.667,-4.6685,-4.6693,-4.6703,-4.6584,-4.6774,-4.7093,-4.7126,-4.6713,-4.671,-4.6706,0,-4.6075,-4.6217,-4.6356,-4.6388,-4.6442,-4.6508,-4.6534,-4.658,-4.6633,-4.6701,-4.6735,-4.6817,-4.6862,-4.6926,-4.6916,-4.6839,-4.7084,-4.6976,-4.7089,-4.7089,-4.7144,-4.714,-4.7475,-4.7174,-4.7173,-4.7173,-4.7172,0,-4.6332,-4.6458,-4.6448,-4.6534,-4.6673,-4.665,-4.679,-4.6808,-4.6849,-4.6938,-4.6889,-4.6974,-4.6956,-4.7041,-4.7034,-4.7171,-4.7192,-4.7197,-4.7193,-4.7201,-4.7201,-4.7232,-4.7217,-4.7181,-4.7179,-4.7178,-4.7176,0,-4.6582,-4.658,-4.6728,-4.6767,-4.678,-4.6881,-4.6915,-4.6997,-4.7002,-4.7115,-4.7141,-4.715,-4.7247,-4.7243,-4.7354,-4.7349,-4.7519,-4.7498,-4.7501,-4.7497,-4.761,-4.76,-4.7978,-4.8026,-4.7693,-4.7696,-4.7699,0,-4.6747,-4.6842,-4.6892,-4.6947,-4.6977,-4.7068,-4.7121,-4.7103,-4.7161,-4.7228,-4.7302,-4.7394,-4.7467,-4.7626,-4.7643,-4.7728,-4.7708,-4.7835,-4.7721,-4.7726,-4.7711,-4.7706,-4.7715,-4.7857,-4.7861,-4.7864,-4.7867,0,-4.7039,-4.7033,-4.7112,-4.7191,-4.7257,-4.7318,-4.7375,-4.7423,-4.7411,-4.7479,-4.7577,-4.7634,-4.7746,-4.784,-4.7921,-4.7948,-4.7907,-4.7903,-4.7933,-4.7942,-4.7941,-4.7944,-4.7563,-4.7894,-4.7891,-4.7889,-4.7888,-4.7887,-4.7252,-4.7334,-4.7382,-4.7471,-4.7512,-4.7566,-4.7644,-4.7659,-4.7741,-4.783,-4.7815,-4.7925,-4.7976,-4.808,-4.8116,-4.8202,-4.8158,-4.8202,-4.8213,-4.8225,-4.8238,-4.7927,-4.8217,-4.8216,-4.8216,-4.8215,-4.8214,0,-4.7542,-4.7569,-4.7652,-4.7732,-4.7803,-4.7757,-4.7817,-4.788,-4.7977,-4.8027,-4.81,-4.8214,-4.8304,-4.8328,-4.8415,-4.848,-4.8464,-4.8504,-4.8499,-4.8506,-4.8273,-4.8237,-4.8516,-4.8516,-4.8516,-4.8516,-4.8516,-4.8516,-4.7701,-4.7838,-4.7838,-4.7995,-4.8022,-4.8129,-4.8168,-4.8218,-4.8257,-4.8386,-4.8461,-4.8475,-4.8516,-4.8605,-4.8686,-4.8691,-4.8726,-4.8774,-4.8772,-4.8553,-4.8523,-4.8494,-4.8461,-4.8782,-4.8782,-4.8998,-4.9,-4.9002]},{"header":{"parameterUnit":"m.s-1","parameterCategory":1,"la1":30.2991,"la2":30.254,"lo1":-89.0895,"lo2":-89.0444,"dy":0.0017,"dx":0.0017,"nx":28,"ny":28,"refTime":"2024-12-22T03:00:00:Z","depth":0,"parameterNumber":3,"parameterNumberName":"V-component_of_WINDS"},"data":[0,0,0,0,0,0,0,0,0,0,0,0,0,0,0,0,0,0,0,0,0,0,0,0,0,0,0,0,0,0,0,0,0,0,0,0,0,0,0,0,0,0,0,0,0,0,0,0,0,0,0,0,0,0,0,0,0,0,-1.3388,-1.3387,0,-1.3349,-1.3348,-1.3348,-1.3314,-1.3314,-1.3313,-1.3313,-1.3274,-1.3273,-1.3272,0,0,0,0,0,0,0,0,0,0,0,0,0,-1.3433,-1.3433,-1.3388,-1.3387,-1.3387,-1.3349,-1.3348,-1.3348,-1.3314,-1.3314,-1.3313,-1.3313,-1.3274,-1.3273,-1.3272,0,0,0,0,0,0,0,0,0,0,0,0,0,-1.3406,-1.3433,-1.3388,-1.3366,-1.3363,-1.3349,-1.3348,-1.3347,-1.3314,-1.3314,-1.3313,-1.3313,-1.3274,-1.3273,-1.3272,-1.3277,0,0,-1.3269,-1.3268,0,0,0,0,0,0,0,0,-1.3408,-1.3404,-1.3369,-1.3367,-1.3364,-1.3336,-1.335,-1.3324,-1.3314,-1.3333,-1.3313,-1.3312,-1.3295,-1.3292,-1.3286,-1.3275,-1.3273,-1.3269,-1.3268,-1.3268,-1.3267,0,0,0,0,0,0,0,-1.3409,-1.3406,-1.3372,-1.3369,-1.3366,-1.3357,-1.3353,-1.3345,-1.3317,-1.3331,-1.3329,-1.3324,-1.3293,-1.3287,-1.3285,-1.3273,-1.3269,-1.3268,-1.3267,-1.3267,-1.3261,-1.3262,0,0,0,0,0,0,-1.3415,-1.3408,-1.3374,-1.3371,-1.3385,-1.3357,-1.3352,-1.3345,-1.3317,-1.3313,-1.3325,-1.3323,-1.3289,-1.3286,-1.3283,-1.3285,-1.3268,-1.3267,-1.3266,-1.3261,-1.3262,-1.3262,0,0,0,0,0,0,-1.3416,-1.3412,-1.3375,-1.3389,-1.3383,-1.3357,-1.335,-1.3345,-1.3339,-1.3313,-1.3308,-1.3323,-1.3288,-1.3285,-1.3278,-1.3283,-1.3266,-1.3265,-1.326,-1.3261,-1.3262,-1.3291,0,0,0,0,0,0,-1.3417,-1.3413,-1.3415,-1.3389,-1.3383,-1.3371,-1.335,-1.3345,-1.3337,-1.3334,-1.331,-1.3305,-1.3288,-1.328,-1.3277,-1.3282,-1.3264,-1.326,-1.3261,-1.3262,-1.3289,-1.3292,-1.3295,0,0,0,0,0,-1.3419,-1.3425,-1.3415,-1.3411,-1.3384,-1.3371,-1.3368,-1.3347,-1.3337,-1.3339,-1.3322,-1.3306,-1.3283,-1.3279,-1.3276,-1.3281,-1.3259,-1.326,-1.3261,-1.3288,-1.3292,-1.3295,0,0,0,0,0,0,-1.3453,-1.3421,-1.341,-1.3407,-1.3392,-1.3366,-1.3367,-1.3352,-1.334,-1.3338,-1.3312,-1.3307,-1.3303,-1.3291,-1.3287,-1.3283,-1.3269,-1.327,-1.329,-1.3294,-1.3297,-1.3299,-1.3263,0,0,0,0,0,-1.3459,-1.3452,-1.3425,-1.3425,-1.3418,-1.3394,-1.3388,-1.3373,-1.3356,-1.335,-1.3332,-1.3317,-1.3306,-1.3299,-1.3288,-1.3287,-1.3281,-1.3289,-1.3292,-1.3294,-1.3295,-1.3292,-1.3294,-1.3266,-1.3266,-1.3266,0,0,-1.3474,-1.3456,-1.3453,-1.3431,-1.3418,-1.341,-1.3389,-1.3382,-1.3375,-1.3349,-1.3341,-1.3327,-1.3308,-1.3304,-1.3302,-1.3294,-1.3301,-1.3296,-1.3298,-1.3297,-1.3293,-1.3296,-1.3298,-1.3266,-1.3266,-1.3266,0,0,-1.3496,-1.3482,-1.348,-1.3467,-1.3446,-1.343,-1.3429,-1.3405,-1.3395,-1.3386,-1.3366,-1.3358,-1.334,-1.3327,-1.3318,-1.3333,-1.3318,-1.333,-1.3345,-1.3343,-1.3345,-1.3347,-1.3351,-1.3353,-1.3331,-1.3331,-1.3331,0,-1.3517,-1.3504,-1.3481,-1.3474,-1.3465,-1.344,-1.3437,-1.3425,-1.3403,-1.3396,-1.3389,-1.3364,-1.335,-1.3341,-1.3345,-1.3339,-1.3337,-1.3332,-1.3346,-1.3348,-1.3349,-1.3353,-1.3355,-1.3332,-1.3332,-1.3332,-1.3332,0,-1.3529,-1.3521,-1.3521,-1.3499,-1.349,-1.3485,-1.3461,-1.3455,-1.344,-1.3425,-1.3416,-1.3397,-1.3381,-1.3378,-1.3364,-1.3367,-1.3363,-1.3351,-1.3337,-1.3354,-1.3357,-1.3358,-1.3334,-1.3334,-1.3333,-1.3333,0,0,-1.3572,-1.3536,-1.3536,-1.3525,-1.35,-1.3492,-1.3486,-1.347,-1.3464,-1.3449,-1.3442,-1.3427,-1.3415,-1.3405,-1.339,-1.3387,-1.3398,-1.3375,-1.3374,-1.3379,-1.3399,-1.3407,-1.3409,-1.3388,-1.3389,-1.3389,-1.34,0,-1.3589,-1.3576,-1.3555,-1.3549,-1.3539,-1.3515,-1.3509,-1.3493,-1.3478,-1.3467,-1.3451,-1.344,-1.3426,-1.3419,-1.3416,-1.3398,-1.3402,-1.3397,-1.3381,-1.3381,-1.3386,-1.3411,-1.342,-1.3431,-1.3401,-1.3401,-1.3401,0,-1.3607,-1.3592,-1.3585,-1.3559,-1.3554,-1.355,-1.3532,-1.3523,-1.3503,-1.3492,-1.348,-1.3463,-1.3454,-1.3442,-1.3429,-1.3426,-1.3418,-1.3408,-1.3408,-1.3405,-1.3392,-1.3407,-1.3434,-1.3436,-1.3403,-1.3403,-1.3403,0,-1.3637,-1.3615,-1.3608,-1.3599,-1.3569,-1.3566,-1.3553,-1.3533,-1.3524,-1.3509,-1.3502,-1.3486,-1.3477,-1.3465,-1.3443,-1.3436,-1.3432,-1.3418,-1.3422,-1.3422,-1.3422,-1.3422,-1.3447,-1.3419,-1.3419,-1.3418,-1.3418,0,-1.3658,-1.3654,-1.362,-1.3616,-1.361,-1.3586,-1.3581,-1.3566,-1.3548,-1.3539,-1.3518,-1.351,-1.3482,-1.3471,-1.3454,-1.3445,-1.3442,-1.3432,-1.3427,-1.3433,-1.3435,-1.3428,-1.3426,-1.3419,-1.3419,-1.3419,-1.3419,0,-1.369,-1.3668,-1.3657,-1.3629,-1.3622,-1.3619,-1.3595,-1.3589,-1.3572,-1.3561,-1.3557,-1.3531,-1.3516,-1.3494,-1.3473,-1.3462,-1.3455,-1.3448,-1.3461,-1.3458,-1.3463,-1.3462,-1.3483,-1.3484,-1.3457,-1.3457,-1.3457,0,-1.3704,-1.3701,-1.3672,-1.3664,-1.3652,-1.364,-1.363,-1.3606,-1.3596,-1.3573,-1.3569,-1.3553,-1.3539,-1.3517,-1.3496,-1.3479,-1.3471,-1.3479,-1.3468,-1.3474,-1.347,-1.347,-1.3468,-1.3482,-1.3482,-1.3483,-1.3483,0,-1.3731,-1.372,-1.3707,-1.3689,-1.3678,-1.3663,-1.3647,-1.3642,-1.3613,-1.3604,-1.3588,-1.3577,-1.3555,-1.3539,-1.3519,-1.3506,-1.3489,-1.3487,-1.3486,-1.3492,-1.3499,-1.3494,-1.3467,-1.3486,-1.3486,-1.3486,-1.3485,-1.3485,-1.3754,-1.3749,-1.3727,-1.3713,-1.3698,-1.3683,-1.3675,-1.3657,-1.3644,-1.3624,-1.361,-1.3595,-1.3574,-1.3546,-1.3533,-1.3521,-1.3514,-1.3514,-1.3513,-1.3514,-1.3515,-1.3502,-1.3517,-1.3517,-1.3517,-1.3517,-1.3517,0,-1.3779,-1.3763,-1.375,-1.3728,-1.3716,-1.3701,-1.3682,-1.3673,-1.366,-1.3642,-1.3628,-1.361,-1.3594,-1.3571,-1.3552,-1.3547,-1.3539,-1.3543,-1.3543,-1.3539,-1.3523,-1.3525,-1.355,-1.355,-1.355,-1.355,-1.355,-1.3549,-1.379,-1.378,-1.3766,-1.3748,-1.3733,-1.3718,-1.3708,-1.3694,-1.3679,-1.3659,-1.3645,-1.363,-1.361,-1.359,-1.3574,-1.3567,-1.3561,-1.3567,-1.3558,-1.3544,-1.3541,-1.3538,-1.3539,-1.3566,-1.3566,-1.3575,-1.3575,-1.3576]}]]